sat.trackr.live / text

‹ back to catalog

ONEWEB-0098

NORAD 45442 · 2020-020U

PAYLOAD ACTIVE UNKNOWN

§ Identity

Operator
Country
UK
Launch date
2020-03-21
Launch site
TYMSC
Launch vehicle
Mass (kg)
RCS (m²)

Purposes: comms

External: N2YO · Heavens-Above · Gunter

§ Orbital elements

Epoch: 2026-09-20T00:45:56.481408Z

Period
109.80 min
Inclination
87.8959°
Eccentricity
0.0001757
Mean motion
13.11418830 rev/d
Perigee alt
1,216.3 km
Apogee alt
1,219.0 km
Semi-major
7,595.8 km
B*
1.3206e-3
RAAN
2.2160°
Arg perigee
100.2292°
Mean anomaly
259.9034°
Rev number
31,507

§ Raw data

ONEWEB-00981 45442U 20020U   26263.03190372  .00000481  00000+0  13206-2 0  99932 45442  87.8959   2.2160 0001757 100.2292 259.9034 13.11418830315072

JSON: /api/v1/satellites/45442 · /tle

For live sub-satellite position, see the globe view (requires WebGL).

§ Visibility from observer

Set your observer location to see the next 7 days of passes ≥ 10°. The values pass through the URL so the page stays shareable.

No JS? Fill the form by hand. The geolocation button needs JavaScript.